Погода в Буаке

Кот-д’Ивуар     7°41′35″N   5°01′41″W
темп.,
°C
ветер,
м/с
пор.,
м/с
влажн.,
%
обл.,
%
осадки,
мм/ч
давл.,
гПа
погр.,
м
6 августа, пт
пт600:00+23ююз4987100 0.1 1017410
03:00+21ююз399562 0.1 1016381
06:00+21ююз389595 0.1 1017350
09:00+22юз2588100 0.0 1018387
12:00+26ююз247072 0.1 10171056
15:00+28зюз2458100 0.2 10141183
18:00+25ссв1172100 0.2 101435
21:00+23юв117742 0.0 101612
7 августа, сб
сб700:00+22ююв237667 0.0 101767
03:00+22юз2478100 0.0 1015124
06:00+21ююз258496 0.0 1016207
09:00+23ююз3581100 0.0 1018451
12:00+28зюз345956 0.0 10161300
15:00+29зюз235481 0.0 10131355
18:00+28ю235952 0.0 1013118
21:00+25зюз2467100 0.1 1016114
8 августа, вс
вс800:00+25з1268100 0.1 101665
03:00+23ююз3772100 0.0 1014380
06:00+21юз3889100 0.0 1016306
09:00+25зюз4572100 0.0 1017809
12:00+29з3456100 0.2 10161521
15:00+28з2463100 0.4 1013350
18:00+26ю1269100 0.8 101391
21:00+23ююз378194 0.2 1015222
9 августа, пн
пн900:00+22ю3887100 0.2 1016304
03:00+21ююз3993100 0.0 1015361
06:00+21юз399696 0.0 1016395
09:00+24юз467997 0.1 1018785
12:00+28юз556386 0.3 10171260
15:00+29юз4457100 0.1 10141446
18:00+27зюз246346 0.1 1014403
21:00+23ююз378469 0.3 1016258
10 августа, вт
вт1000:00+22ююз4109353 0.7 1017474
03:00+21ююз399597 0.0 1015492
06:00+21ююз399498 0.0 1016519
09:00+23ююз3687100 0.3 1018556
12:00+25юз467394 0.5 1017940
15:00+29зюз455466 0.1 10131511
18:00+28юз246185 0.1 1013316
21:00+24ю367691 0.1 1015184